[[{"header":{"parameterUnit":"m.s-1","parameterCategory":1,"la1":30.2991,"la2":30.254,"lo1":-89.0895,"lo2":-89.0444,"dy":0.0017,"dx":0.0017,"nx":28,"ny":28,"refTime":"2024-06-21T03:00:00:Z","depth":0,"parameterNumber":2,"parameterNumberName":"U-component_of_WINDS"},"data":[0,0,0,0,0,0,0,0,0,0,0,0,0,0,0,0,0,0,0,0,0,0,0,0,0,0,0,0,0,0,0,0,0,0,0,0,0,0,0,0,0,0,0,0,0,0,0,0,0,0,0,0,0,0,0,0,0,0,-0.5036,-0.5035,0,-0.4977,-0.4976,-0.4976,-0.4924,-0.4923,-0.4923,-0.4922,-0.4861,-0.486,-0.4859,0,0,0,0,0,0,0,0,0,0,0,0,0,-0.5102,-0.5101,-0.5036,-0.5035,-0.5034,-0.4977,-0.4976,-0.4976,-0.4924,-0.4923,-0.4923,-0.4922,-0.4861,-0.486,-0.4859,0,0,0,0,0,0,0,0,0,0,0,0,0,-0.5061,-0.5101,-0.5036,-0.5002,-0.4998,-0.4977,-0.4976,-0.4975,-0.4924,-0.4923,-0.4922,-0.4921,-0.4861,-0.486,-0.4858,-0.4866,0,0,-0.4853,-0.4853,0,0,0,0,0,0,0,0,-0.5064,-0.5059,-0.5007,-0.5004,-0.5,-0.4957,-0.4977,-0.4939,-0.4924,-0.4952,-0.4922,-0.4921,-0.4893,-0.4889,-0.488,-0.4863,-0.4861,-0.4853,-0.4852,-0.4852,-0.4851,0,0,0,0,0,0,0,-0.5066,-0.5061,-0.5012,-0.5007,-0.5002,-0.4989,-0.4982,-0.497,-0.4928,-0.495,-0.4946,-0.494,-0.4891,-0.4882,-0.4878,-0.486,-0.4853,-0.4852,-0.4851,-0.485,-0.4846,-0.4847,0,0,0,0,0,0,-0.5075,-0.5064,-0.5014,-0.5011,-0.503,-0.4988,-0.4981,-0.4972,-0.4928,-0.4921,-0.494,-0.4937,-0.4885,-0.488,-0.4876,-0.4882,-0.4852,-0.485,-0.4849,-0.4845,-0.4847,-0.4847,0,0,0,0,0,0,-0.5076,-0.5071,-0.5017,-0.5036,-0.5028,-0.4988,-0.4978,-0.4971,-0.4961,-0.4921,-0.4914,-0.4938,-0.4884,-0.4878,-0.4869,-0.4879,-0.4849,-0.4848,-0.4844,-0.4846,-0.4847,-0.4895,0,0,0,0,0,0,-0.5078,-0.5072,-0.5075,-0.5037,-0.5027,-0.5012,-0.4979,-0.497,-0.4959,-0.4954,-0.4918,-0.4911,-0.4883,-0.4872,-0.4867,-0.4877,-0.4847,-0.4843,-0.4845,-0.4847,-0.4893,-0.4898,-0.4903,0,0,0,0,0,-0.5081,-0.509,-0.5075,-0.5069,-0.503,-0.5012,-0.5007,-0.4975,-0.496,-0.4962,-0.4937,-0.4912,-0.4879,-0.4871,-0.4866,-0.4875,-0.4843,-0.4845,-0.4846,-0.489,-0.4897,-0.4903,0,0,0,0,0,0,-0.5131,-0.5085,-0.5067,-0.5065,-0.5043,-0.5004,-0.5006,-0.4983,-0.4965,-0.4961,-0.4922,-0.4914,-0.491,-0.4891,-0.4883,-0.488,-0.4857,-0.4858,-0.4892,-0.4898,-0.4903,-0.4908,-0.4845,0,0,0,0,0,-0.5141,-0.5131,-0.5091,-0.5093,-0.5083,-0.5046,-0.5037,-0.5015,-0.499,-0.498,-0.4954,-0.4931,-0.4915,-0.4906,-0.4889,-0.4889,-0.488,-0.4893,-0.4898,-0.4902,-0.4904,-0.4902,-0.4907,-0.4854,-0.4854,-0.4854,0,0,-0.5163,-0.5137,-0.5133,-0.5102,-0.5082,-0.5072,-0.5039,-0.5029,-0.5021,-0.4979,-0.4969,-0.4949,-0.492,-0.4916,-0.4913,-0.49,-0.4916,-0.4905,-0.4909,-0.4907,-0.4905,-0.491,-0.4914,-0.4855,-0.4855,-0.4855,0,0,-0.5198,-0.5177,-0.5176,-0.5157,-0.5128,-0.5103,-0.5103,-0.5067,-0.5052,-0.5042,-0.501,-0.4999,-0.4973,-0.4954,-0.4941,-0.4968,-0.4944,-0.4963,-0.499,-0.4989,-0.4993,-0.4997,-0.5007,-0.501,-0.4965,-0.4965,-0.4965,0,-0.5229,-0.5213,-0.5178,-0.5171,-0.5158,-0.512,-0.5118,-0.5101,-0.5068,-0.506,-0.5046,-0.5013,-0.499,-0.4981,-0.4988,-0.4978,-0.4977,-0.4968,-0.4996,-0.4999,-0.5001,-0.501,-0.5014,-0.4967,-0.4967,-0.4967,-0.4967,0,-0.5252,-0.5241,-0.5244,-0.5213,-0.52,-0.5196,-0.5161,-0.5152,-0.513,-0.5107,-0.5097,-0.5069,-0.5046,-0.5042,-0.502,-0.5029,-0.5023,-0.5003,-0.4979,-0.501,-0.5017,-0.502,-0.4971,-0.497,-0.4969,-0.4969,0,0,-0.5317,-0.5267,-0.5269,-0.5254,-0.5219,-0.5209,-0.5203,-0.5181,-0.5174,-0.5152,-0.5145,-0.5124,-0.5105,-0.5091,-0.5066,-0.5066,-0.5089,-0.5046,-0.5045,-0.5055,-0.5097,-0.5112,-0.5117,-0.5073,-0.5073,-0.5074,-0.5099,0,-0.5347,-0.5333,-0.5302,-0.5298,-0.5287,-0.525,-0.5244,-0.5222,-0.52,-0.5187,-0.5162,-0.5148,-0.5124,-0.5115,-0.5113,-0.5087,-0.5097,-0.5084,-0.5066,-0.5066,-0.5075,-0.5121,-0.5137,-0.5163,-0.5102,-0.5103,-0.5103,0,-0.5379,-0.536,-0.5355,-0.532,-0.5314,-0.531,-0.5287,-0.5275,-0.5248,-0.5232,-0.5216,-0.5189,-0.5179,-0.5158,-0.5144,-0.5136,-0.5126,-0.5112,-0.5113,-0.511,-0.5087,-0.512,-0.517,-0.5174,-0.5107,-0.5107,-0.5107,0,-0.5428,-0.54,-0.5394,-0.5382,-0.5341,-0.5339,-0.5321,-0.5294,-0.5282,-0.5262,-0.5254,-0.5232,-0.5221,-0.5205,-0.5173,-0.516,-0.5163,-0.5138,-0.5149,-0.515,-0.5152,-0.5152,-0.5202,-0.5145,-0.5145,-0.5145,-0.5145,0,-0.5464,-0.5462,-0.5415,-0.5411,-0.5408,-0.5372,-0.537,-0.5349,-0.5324,-0.5315,-0.5281,-0.5274,-0.5232,-0.5219,-0.5194,-0.5186,-0.5181,-0.5168,-0.5161,-0.5171,-0.5173,-0.5165,-0.5162,-0.5146,-0.5146,-0.5145,-0.5145,0,-0.5518,-0.5486,-0.5476,-0.5438,-0.5428,-0.5428,-0.5395,-0.5389,-0.5365,-0.5354,-0.5349,-0.5311,-0.5294,-0.5261,-0.5234,-0.5217,-0.5215,-0.5204,-0.5225,-0.5221,-0.5234,-0.5233,-0.528,-0.5284,-0.5225,-0.5226,-0.5226,0,-0.5543,-0.5541,-0.5503,-0.5494,-0.5478,-0.5465,-0.5453,-0.5417,-0.5406,-0.5375,-0.5374,-0.5354,-0.5337,-0.5311,-0.5281,-0.526,-0.5248,-0.5266,-0.5245,-0.5255,-0.5248,-0.5249,-0.5249,-0.5271,-0.5272,-0.5272,-0.5273,0,-0.5592,-0.5576,-0.5561,-0.554,-0.5526,-0.5508,-0.5487,-0.5482,-0.5441,-0.5431,-0.5413,-0.54,-0.5373,-0.5354,-0.5329,-0.531,-0.5285,-0.528,-0.5281,-0.5292,-0.5304,-0.5298,-0.5238,-0.5279,-0.5278,-0.5278,-0.5278,-0.5277,-0.5633,-0.5629,-0.5601,-0.5585,-0.5566,-0.5547,-0.554,-0.5515,-0.55,-0.5476,-0.5455,-0.5439,-0.5412,-0.5376,-0.5359,-0.5345,-0.5333,-0.5335,-0.5336,-0.5337,-0.5341,-0.5306,-0.5341,-0.534,-0.534,-0.534,-0.534,0,-0.568,-0.566,-0.5645,-0.5618,-0.5605,-0.5582,-0.5558,-0.5549,-0.5536,-0.5512,-0.5496,-0.5475,-0.5457,-0.5425,-0.5403,-0.5399,-0.5386,-0.5394,-0.5394,-0.5391,-0.5353,-0.5354,-0.5404,-0.5404,-0.5404,-0.5404,-0.5404,-0.5404,-0.5703,-0.5696,-0.5677,-0.566,-0.5639,-0.5624,-0.5612,-0.5595,-0.5576,-0.5555,-0.554,-0.5519,-0.5492,-0.5468,-0.5449,-0.544,-0.5434,-0.5446,-0.5433,-0.5399,-0.5393,-0.5387,-0.5388,-0.5445,-0.5445,-0.5471,-0.5472,-0.5472]},{"header":{"parameterUnit":"m.s-1","parameterCategory":1,"la1":30.2991,"la2":30.254,"lo1":-89.0895,"lo2":-89.0444,"dy":0.0017,"dx":0.0017,"nx":28,"ny":28,"refTime":"2024-06-21T03:00:00:Z","depth":0,"parameterNumber":3,"parameterNumberName":"V-component_of_WINDS"},"data":[0,0,0,0,0,0,0,0,0,0,0,0,0,0,0,0,0,0,0,0,0,0,0,0,0,0,0,0,0,0,0,0,0,0,0,0,0,0,0,0,0,0,0,0,0,0,0,0,0,0,0,0,0,0,0,0,0,0,-0.1436,-0.1437,0,-0.148,-0.148,-0.1481,-0.1511,-0.1511,-0.1511,-0.1512,-0.1559,-0.156,-0.1561,0,0,0,0,0,0,0,0,0,0,0,0,0,-0.1381,-0.1382,-0.1436,-0.1437,-0.1437,-0.148,-0.148,-0.1481,-0.1511,-0.1511,-0.1511,-0.1512,-0.1558,-0.1559,-0.1561,0,0,0,0,0,0,0,0,0,0,0,0,0,-0.1413,-0.1382,-0.1436,-0.1457,-0.146,-0.148,-0.148,-0.1481,-0.1511,-0.1511,-0.1512,-0.1512,-0.1558,-0.1559,-0.1561,-0.1564,0,0,-0.1566,-0.1566,0,0,0,0,0,0,0,0,-0.1411,-0.1415,-0.1454,-0.1456,-0.1458,-0.149,-0.1478,-0.1509,-0.1511,-0.1491,-0.1512,-0.1512,-0.1536,-0.1539,-0.1547,-0.1566,-0.1568,-0.1566,-0.1567,-0.1567,-0.1568,0,0,0,0,0,0,0,-0.1409,-0.1413,-0.1453,-0.1454,-0.1457,-0.1465,-0.147,-0.1484,-0.1511,-0.1493,-0.1495,-0.15,-0.1537,-0.1545,-0.1548,-0.1569,-0.1566,-0.1567,-0.1568,-0.1569,-0.1593,-0.1593,0,0,0,0,0,0,-0.1403,-0.1411,-0.1452,-0.1455,-0.1435,-0.1466,-0.1472,-0.148,-0.1511,-0.1516,-0.15,-0.1501,-0.1542,-0.1546,-0.155,-0.1555,-0.1567,-0.1569,-0.157,-0.1593,-0.1593,-0.1593,0,0,0,0,0,0,-0.1402,-0.1406,-0.145,-0.1434,-0.144,-0.1467,-0.1476,-0.148,-0.1488,-0.1516,-0.1521,-0.1503,-0.1543,-0.1548,-0.156,-0.1557,-0.157,-0.1571,-0.1594,-0.1593,-0.1593,-0.1566,0,0,0,0,0,0,-0.14,-0.1406,-0.1406,-0.1433,-0.1441,-0.1459,-0.1475,-0.1481,-0.1491,-0.1493,-0.152,-0.1525,-0.1543,-0.1558,-0.1562,-0.156,-0.1572,-0.1594,-0.1594,-0.1593,-0.1567,-0.1565,-0.1563,0,0,0,0,0,-0.1398,-0.1398,-0.1406,-0.1411,-0.1442,-0.1459,-0.1463,-0.1483,-0.149,-0.1492,-0.151,-0.1524,-0.1557,-0.1559,-0.1563,-0.1562,-0.1594,-0.1594,-0.1593,-0.1568,-0.1565,-0.1563,0,0,0,0,0,0,-0.137,-0.1402,-0.1412,-0.142,-0.1436,-0.1464,-0.1466,-0.1479,-0.1495,-0.1496,-0.1522,-0.1528,-0.1537,-0.1551,-0.1552,-0.1567,-0.1578,-0.1578,-0.1557,-0.1554,-0.1552,-0.1548,-0.1574,0,0,0,0,0,-0.1365,-0.1375,-0.1402,-0.1407,-0.1415,-0.1439,-0.1447,-0.1461,-0.148,-0.1487,-0.1506,-0.1524,-0.1538,-0.1547,-0.1562,-0.157,-0.1576,-0.1571,-0.1569,-0.1567,-0.1567,-0.1572,-0.157,-0.1591,-0.1591,-0.1591,0,0,-0.1355,-0.1373,-0.1378,-0.1402,-0.1417,-0.1427,-0.1445,-0.1455,-0.1464,-0.1489,-0.1501,-0.1516,-0.1538,-0.1548,-0.1553,-0.156,-0.1562,-0.1566,-0.1564,-0.1565,-0.1571,-0.1569,-0.1567,-0.159,-0.159,-0.159,0,0,-0.1341,-0.1356,-0.1361,-0.1375,-0.1397,-0.1413,-0.1414,-0.144,-0.145,-0.1463,-0.1482,-0.1493,-0.1517,-0.1532,-0.1543,-0.1535,-0.1549,-0.1539,-0.1526,-0.1531,-0.153,-0.1528,-0.1525,-0.1524,-0.1539,-0.1539,-0.1539,0,-0.1325,-0.1341,-0.1363,-0.1372,-0.1382,-0.1405,-0.1411,-0.1424,-0.1449,-0.1456,-0.1463,-0.1494,-0.151,-0.1524,-0.1522,-0.153,-0.1532,-0.1536,-0.1528,-0.1527,-0.1526,-0.1524,-0.1522,-0.1537,-0.1538,-0.1538,-0.1538,0,-0.1321,-0.1332,-0.1334,-0.1357,-0.1368,-0.1376,-0.1399,-0.1407,-0.142,-0.1436,-0.1449,-0.147,-0.1489,-0.1493,-0.1507,-0.1509,-0.1512,-0.1523,-0.1535,-0.1522,-0.152,-0.152,-0.1535,-0.1536,-0.1536,-0.1537,0,0,-0.1291,-0.1326,-0.1326,-0.1337,-0.1362,-0.1372,-0.1381,-0.1399,-0.1406,-0.1423,-0.1431,-0.1451,-0.1461,-0.1473,-0.1489,-0.1493,-0.1485,-0.1504,-0.1504,-0.1499,-0.1489,-0.1481,-0.1479,-0.1495,-0.1495,-0.1495,-0.1487,0,-0.1281,-0.1297,-0.1317,-0.1327,-0.1338,-0.136,-0.1368,-0.1385,-0.1399,-0.1411,-0.1428,-0.1442,-0.1454,-0.1462,-0.1467,-0.1485,-0.1484,-0.1486,-0.1504,-0.1504,-0.1497,-0.1478,-0.1469,-0.1461,-0.1487,-0.1487,-0.1487,0,-0.1271,-0.1286,-0.1297,-0.1322,-0.1327,-0.1334,-0.1352,-0.1363,-0.1383,-0.1394,-0.1407,-0.1423,-0.1435,-0.1445,-0.1461,-0.1462,-0.1471,-0.1481,-0.1481,-0.1483,-0.1494,-0.148,-0.1459,-0.1457,-0.1486,-0.1486,-0.1486,0,-0.1248,-0.1271,-0.1281,-0.1289,-0.1318,-0.1322,-0.1335,-0.1355,-0.1365,-0.1381,-0.1388,-0.1405,-0.1415,-0.1429,-0.145,-0.1455,-0.1464,-0.1476,-0.1473,-0.1473,-0.1474,-0.1473,-0.1454,-0.148,-0.148,-0.148,-0.148,0,-0.1234,-0.124,-0.127,-0.1276,-0.1283,-0.1306,-0.1313,-0.1328,-0.1346,-0.1355,-0.1376,-0.1384,-0.1412,-0.1424,-0.1441,-0.1452,-0.1456,-0.1465,-0.147,-0.1463,-0.1462,-0.1469,-0.147,-0.148,-0.148,-0.148,-0.148,0,-0.1209,-0.123,-0.1241,-0.1268,-0.1275,-0.1279,-0.1302,-0.1309,-0.1325,-0.1337,-0.1341,-0.1367,-0.1382,-0.1404,-0.1427,-0.1438,-0.1446,-0.1454,-0.1439,-0.1442,-0.1438,-0.1438,-0.1422,-0.1421,-0.1447,-0.1447,-0.1447,0,-0.1199,-0.1204,-0.1231,-0.1238,-0.125,-0.1262,-0.1271,-0.1294,-0.1304,-0.1327,-0.1331,-0.1348,-0.1362,-0.1386,-0.1407,-0.1425,-0.1432,-0.1425,-0.1435,-0.1428,-0.1432,-0.1431,-0.1432,-0.1423,-0.1423,-0.1422,-0.1422,0,-0.1179,-0.1188,-0.1201,-0.1218,-0.1229,-0.1244,-0.1259,-0.1264,-0.1291,-0.13,-0.1316,-0.1327,-0.135,-0.1366,-0.1386,-0.14,-0.1415,-0.1419,-0.1419,-0.1412,-0.1404,-0.1408,-0.1433,-0.1419,-0.1419,-0.142,-0.142,-0.142,-0.116,-0.1166,-0.1185,-0.1199,-0.1213,-0.1227,-0.1235,-0.1252,-0.1265,-0.1284,-0.1298,-0.1312,-0.1333,-0.1361,-0.1374,-0.1387,-0.1393,-0.1394,-0.1394,-0.1393,-0.1391,-0.1402,-0.1391,-0.1391,-0.1391,-0.1391,-0.1391,0,-0.1141,-0.1155,-0.1167,-0.1188,-0.1199,-0.1212,-0.123,-0.1238,-0.1251,-0.1268,-0.1282,-0.13,-0.1316,-0.1338,-0.1356,-0.1362,-0.1369,-0.1366,-0.1366,-0.1368,-0.1384,-0.1382,-0.136,-0.136,-0.136,-0.136,-0.136,-0.136,-0.1132,-0.1142,-0.1154,-0.1171,-0.1185,-0.1199,-0.1208,-0.1221,-0.1235,-0.1254,-0.1267,-0.1281,-0.1301,-0.132,-0.1336,-0.1342,-0.1348,-0.1342,-0.135,-0.1365,-0.1367,-0.137,-0.1368,-0.1343,-0.1343,-0.1334,-0.1334,-0.1333]}]]